User: anonymous   Login
Location: ???????
(55.4362°N, 38.1183°E)
Time: 23:44:40
(UTC+00:00)
Language:

USA 281 - Orbit

View from above orbital plane
View from above orbital plane
View from above satellite
View from above satellite

Ground track
Ground track

The orbit data is extracted from the following two-line orbital elements,

1 43145U 18005A   21265.85280825 0.00000000  00000-0  00000-0 0    08
2 43145 106.0068 119.1242 0002000 181.1003 178.8997 13.48002779    06
Epoch (UTC): 22 September 2021 20:28:02
Eccentricity: 0.0002000
inclination: 106.0068°
perigee height: 1078 km
apogee height: 1081 km
right ascension of ascending node: 119.1242°
argument of perigee: 181.1003°
revolutions per day: 13.48002779
mean anomaly at epoch: 178.8997°
orbit number at epoch: 0

The dashed part of the orbit path shows where the satellite is in the earth's shadow,  

DLR